Location: Ballingbuur
(53.0000°N, 5.7667°E)
Time: 06:16:12
(UTC+00:00)

Cosmos 2327 Rocket - Pass Details

Date: 29 November 2020
Orbit: 945 x 1007 km, 83.0° (Epoch: 23 January)

Event Time Altitude Azimuth Distance (km) Brightness Sun altitude
Rises 05:28:37 0° 187° (S) 3,612 7.6 -16.6°
Reaches altitude 10° 05:31:05 10° 187° (S) 2,666 6.9 -16.2°
Maximum altitude 05:37:11 88° 97° (E) 954 4.4 -15.3°
Drops below altitude 10° 05:43:19 10° 11° (N) 2,681 6.7 -14.4°
Sets 05:45:49 0° 11° (N) 3,633 7.4 -14.1°
